Location: Dresden
(51.0483°N, 13.7137°E)
Time: 03:00:04
(UTC+02:00)

Tiangong 2 - Visible Passes

Search period start: 27 May 2018 00:00
Search period end: 06 June 2018 00:00
Orbit: 382 x 385 km, 42.8° (Epoch: 26 May)

Date Brightness Start Highest point End Pass type
(mag) Time Alt. Az. Time Alt. Az. Time Alt. Az.
27 May 2.8 21:49:31 10° SW 21:51:48 18° S 21:54:05 10° SE visible
28 May 3.1 22:26:21 10° SW 22:28:14 15° SSW 22:29:17 13° S visible
30 May 3.4 22:03:46 10° SW 22:05:01 12° SSW 22:06:15 10° S visible
